EW7001 Weather Reports


Display with metric or nautical units.
time (UTC)temp
F
wind
direction
speed
MPH
gust
MPH
rain 1hr
in
rain 24hr
in
rain mn
in
humidity
%
barometer
mb
20260507090109 48 246 3.0 8.0 0.00 0.03 0.01 36 1008.9
20260507084549 48 264 3.0 8.0 0.00 0.03 0.01 36 1009.0
20260507083048 47 257 6.0 10.0 0.00 0.03 0.01 37 1008.9
20260507081556 47 243 6.0 9.0 0.00 0.03 0.01 36 1008.9
20260507081554 47 229 6.0 9.0 0.00 0.03 0.01 36 1008.9
20260507080043 48 260 8.0 13.0 0.00 0.03 0.01 34 1009.2
20260507074559 49 256 6.0 9.0 0.00 0.03 0.01 34 1009.7
20260507073011 48 237 6.0 12.0 0.00 0.03 0.01 34 1009.7
20260507071509 47 246 6.0 12.0 0.00 0.03 0.01 34 1009.9
20260507070048 47 243 4.0 9.0 0.00 0.03 0.01 33 1010.5
20260507064536 47 251 8.0 12.0 0.00 0.03 0.01 33 1010.3
20260507063006 46 204 6.0 14.0 0.00 0.03 0.01 34 1010.5
20260507061506 39 263 3.0 6.0 0.00 0.03 0.01 44 1010.7
20260507060032 37 220 4.0 6.0 0.00 0.03 0.01 45 1010.8
20260507054530 38 220 4.0 6.0 0.00 0.03 0.01 42 1010.9
20260507053059 39 195 6.0 8.0 0.00 0.03 0.01 42 1011.1
20260507051557 38 221 3.0 6.0 0.00 0.03 0.01 43 1011.2
20260507050032 37 201 5.0 7.0 0.00 0.03 0.01 45 1011.2
20260507044540 37 216 6.0 8.0 0.00 0.03 0.01 45 1011.4
20260507043053 37 200 5.0 7.0 0.00 0.03 0.01 45 1011.5
20260507041551 37 201 4.0 6.0 0.00 0.03 0.01 45 1011.7
20260507040050 38 203 5.0 7.0 0.00 0.03 0.01 44 1011.9
20260507034549 37 195 3.0 5.0 0.00 0.03 0.01 45 1011.9
20260507033045 34 208 2.0 4.0 0.00 0.03 0.01 51 1011.9
20260507031544 33 63 1.0 3.0 0.00 0.03 0.01 51 1011.9
20260507030040 34 124 1.0 2.0 0.00 0.03 0.01 48 1012.0
20260507024534 37 76 1.0 3.0 0.00 0.03 0.01 43 1012.0
20260507023027 40 135 1.0 3.0 0.00 0.03 0.01 36 1011.9
20260507021526 47 206 1.0 3.0 0.00 0.03 0.01 29 1012.0
20260507020023 50 310 1.0 3.0 0.00 0.03 0.01 28 1012.1
20260507014524 51 342 1.0 5.0 0.00 0.04 0.01 27 1012.3
20260507013020 52 348 3.0 8.0 0.00 0.04 0.01 25 1012.5
20260507011526 53 279 3.0 6.0 0.00 0.04 0.01 25 1012.3
20260507010120 53 276 5.0 8.0 0.00 0.04 0.01 24 1012.6
20260507004514 54 315 5.0 10.0 0.00 0.12 0.01 23 1012.5
20260507003012 54 269 4.0 11.0 0.00 0.12 0.01 22 1012.8
20260507001514 54 255 6.0 9.0 0.00 0.12 0.01 23 1012.9
20260507000042 54 296 4.0 10.0 0.00 0.12 0.01 22 1013.1
20260506234537 54 274 5.0 11.0 0.00 0.42 0.01 23 1013.3
20260506233033 53 319 4.0 8.0 0.00 0.42 0.01 24 1013.3
20260506231533 54 271 5.0 16.0 0.00 0.42 0.01 23 1013.4
20260506230029 53 251 6.0 11.0 0.00 0.42 0.01 22 1013.6
20260506224525 53 276 6.0 14.0 0.00 0.97 0.01 24 1013.9
20260506223018 53 264 4.0 12.0 0.00 0.97 0.01 22 1014.5
20260506221511 53 271 4.0 10.0 0.00 0.97 0.01 23 1014.9
20260506220005 52 243 7.0 12.0 0.01 0.97 0.01 23 1015.2
20260506214502 51 328 5.0 15.0 0.01 1.53 0.01 24 1015.2
20260506213055 51 269 7.0 13.0 0.01 1.53 0.01 24 1015.6
20260506211553 51 278 8.0 16.0 0.01 1.53 0.01 23 1015.7
20260506210050 51 343 5.0 13.0 0.00 1.52 0.00 25 1015.9
20260506204541 50 208 7.0 16.0 0.00 2.31 0.00 25 1016.4
20260506203040 50 293 7.0 15.0 0.00 2.31 0.00 25 1016.5
20260506201541 49 238 5.0 13.0 0.00 2.31 0.00 27 1016.8
20260506200027 48 247 9.0 16.0 0.00 2.31 0.00 26 1017.0
20260506194520 48 229 5.0 11.0 0.00 3.14 0.00 28 1017.0
20260506193017 47 274 7.0 12.0 0.00 3.14 0.00 27 1017.3
20260506191511 48 276 6.0 11.0 0.00 3.14 0.00 28 1017.6
20260506190004 46 290 5.0 14.0 0.00 3.14 0.00 29 1018.1
20260506184603 46 256 7.0 15.0 0.00 4.12 0.00 28 1018.3
20260506183055 45 271 2.0 9.0 0.00 4.12 0.00 32 1018.5
20260506181548 45 290 6.0 11.0 0.00 4.12 0.00 32 1018.8
20260506180039 44 298 4.0 11.0 0.00 4.12 0.00 33 1019.0
20260506174536 44 278 5.0 15.0 0.00 4.46 0.00 31 1019.4
20260506173035 42 340 7.0 13.0 0.00 4.46 0.00 35 1019.4
20260506171522 42 328 3.0 10.0 0.00 4.46 0.00 35 1019.4
20260506170017 42 271 8.0 13.0 0.01 4.46 0.00 35 1019.5
20260506164516 42 59 4.0 11.0 0.02 4.69 4.46 36 1019.6
20260506163030 41 356 3.0 10.0 0.02 4.69 4.46 39 1019.7
20260506161546 41 1 5.0 12.0 0.02 4.69 4.46 37 1019.9
20260506160045 41 314 5.0 10.0 0.01 4.68 4.45 37 1020.1
20260506154547 41 306 5.0 12.0 0.00 4.80 4.44 39 1020.1
20260506153042 39 340 5.0 11.0 0.00 4.80 4.44 41 1020.2
20260506151541 39 269 5.0 13.0 0.00 4.80 4.44 42 1020.3
20260506150139 39 278 5.0 12.0 0.00 4.80 4.44 41 1020.4
20260506144538 38 1 4.0 12.0 0.00 4.80 4.44 44 1020.4
20260506143034 37 264 3.0 8.0 0.00 4.80 4.44 48 1020.5
20260506141532 36 305 5.0 9.0 0.00 4.80 4.44 49 1020.5
20260506140038 35 293 7.0 11.0 0.00 4.80 4.44 51 1020.5
20260506134501 34 286 3.0 8.0 0.00 4.80 4.44 60 1020.5
20260506133002 32 269 3.0 8.0 0.00 4.80 4.44 65 1020.5
20260506131600 30 206 2.0 4.0 0.00 4.80 4.44 70 1020.6
20260506130105 28 237 1.0 3.0 0.00 4.80 4.44 75 1020.5
20260506124559 24 197 0.0 1.0 0.00 4.80 4.44 80 1020.5
20260506123055 20 46 1.0 3.0 0.00 4.80 4.44 78 1020.5
20260506121558 20 28 1.0 3.0 0.00 4.80 4.44 78 1020.4
20260506120106 20 68 1.0 3.0 0.00 4.80 4.44 78 1020.2
20260506114558 20 161 1.0 3.0 0.00 4.80 4.44 83 1020.1
20260506113046 18 77 0.0 3.0 0.00 4.80 4.44 82 1020.0
20260506111544 17 188 1.0 3.0 0.00 4.80 4.44 82 1020.0
20260506110045 16 98 1.0 3.0 0.00 4.80 4.44 83 1020.0
20260506104544 14 84 1.0 3.0 0.00 4.80 4.44 82 1019.9
20260506103040 14 66 1.0 4.0 0.00 4.80 4.44 81 1019.9
20260506101537 13 77 1.0 3.0 0.00 4.80 4.44 81 1019.8
20260506100038 13 81 2.0 3.0 0.00 4.80 4.44 81 1019.7
20260506094531 13 89 1.0 3.0 0.00 4.80 4.44 80 1019.6
20260506093045 14 81 1.0 3.0 0.00 4.80 4.44 80 1019.4
20260506091558 14 82 1.0 3.0 0.00 4.80 4.44 80 1019.3